This demonstration page uses our WeatherBlox Daily Observations layout. Learn more.

Left ArrowRight Arrow

44.89941, -97.11507

Hourly Observations for November 20, 2020

Temp ( °F °C ) Dew Point ( °F °C ) Humidity (%) Winds ( mph kmh ) Pressure ( in mb ) Visibility ( mi km ) Precip ( " mm )
12:53 am 00:53 Clear 36 2.2 32 0 86 86 NW 8 13 30.15 1021 10 16 0.00 0.00
1:53 am 01:53 Clear 33 0.6 31 -0.6 92 92 W 6 9 30.18 1022 10 16 0.00 0.00
2:53 am 02:53 Clear 33 0.6 30 -1.1 89 89 WNW 8 13 30.21 1023 10 16 0.00 0.00
3:53 am 03:53 Clear 31 -0.6 29 -1.7 92 92 WNW 8 13 30.25 1024 8 13 0.00 0.00
4:53 am 04:53 Clear with Mist and Fog 30 -1.1 29 -1.7 96 96 NW 12 19 30.29 1026 6 10 0.00 0.00
5:00 am 05:00 Partly Cloudy with Mist and Fog 31 -0.6 29 -1.7 92 92 NW 13 20 30.33 1027 6 10 0.00 0.00
5:09 am 05:09 Mostly Cloudy with Mist and Fog 31 -0.6 30 -1.1 96 96 NNW 13 20 30.33 1027 6 10 0.00 0.00
5:53 am 05:53 Partly Cloudy with Mist and Fog 30 -1.1 29 -1.7 96 96 NNW 10 17 30.32 1027 5 8 0.00 0.00
6:44 am 06:44 Mostly Cloudy with Mist and Fog 31 -0.6 29 -1.7 92 92 NNW 13 20 30.37 1029 6 10 0.00 0.00
6:53 am 06:53 Cloudy with Mist and Fog 32 0 30 -1.1 92 92 NNW 17 28 30.34 1028 6 10 0.00 0.00
7:53 am 07:53 Mostly Cloudy 30 -1.1 27 -2.8 88 88 NNW 13 20 30.38 1029 7 11 0.00 0.00
8:00 am 08:00 Partly Cloudy 30 -1.1 26 -3.3 85 85 NNW 14 22 30.42 1030 7 11 0.00 0.00
8:53 am 08:53 Sunny 30 -1.1 26 -3.3 85 85 NNW 14 22 30.41 1030 9 14 0.00 0.00
9:53 am 09:53 Sunny 31 -0.6 25 -3.9 79 79 NNW 16 26 30.44 1031 10 16 0.00 0.00
10:53 am 10:53 Sunny 32 0 24 -4.4 73 73 NNW 12 19 30.47 1032 10 16 0.00 0.00
11:53 am 11:53 Sunny 33 0.6 23 -5 66 66 NW 14 22 30.48 1032 10 16 0.00 0.00
12:53 pm 12:53 Sunny 34 1.1 21 -6.1 59 59 NW 9 15 30.48 1032 10 16 0.00 0.00
1:53 pm 13:53 Sunny 35 1.7 21 -6.1 57 57 NNW 13 20 30.48 1032 10 16 0.00 0.00
2:53 pm 14:53 Sunny 34 1.1 21 -6.1 59 59 NW 9 15 30.49 1033 10 16 0.00 0.00
3:53 pm 15:53 Sunny 33 0.6 21 -6.1 61 61 NW 8 13 30.50 1033 10 16 0.00 0.00
4:53 pm 16:53 Sunny 29 -1.7 20 -6.7 69 69 NW 7 11 30.53 1034 10 16 0.00 0.00
5:53 pm 17:53 Clear 29 -1.7 21 -6.1 72 72 NW 5 7 30.54 1034 10 16 0.00 0.00
6:53 pm 18:53 Clear 28 -2.2 20 -6.7 72 72 Calm 30.54 1034 10 16 0.00 0.00
7:53 pm 19:53 Clear 28 -2.2 21 -6.1 75 75 NNW 3 6 30.58 1035 10 16 0.00 0.00
8:53 pm 20:53 Mostly Clear 25 -3.9 20 -6.7 81 81 Calm 30.57 1035 10 16 0.00 0.00
9:53 pm 21:53 Clear 25 -3.9 20 -6.7 81 81 Calm 30.57 1035 10 16 0.00 0.00
10:53 pm 22:53 Clear 21 -6.1 18 -7.8 88 88 Calm 30.58 1035 9 14 0.00 0.00
11:53 pm 23:53 Clear 22 -5.6 21 -6.1 96 96 Calm 30.56 1035 8 13 0.00 0.00

Powered by AerisWeather